Weather in Amalfi

Italy     40°38′01″N   14°36′10″E
temp.,
°C
wind,
m/s
gust,
m/s
humid.,
%
clouds,
%
prec.,
mm/h
press.,
hPa
HPBL,
m
4 march, thu
thu401:00+10wsw01580 0.0 102969
04:00+10ssw11620 0.0 102783
07:00+9ssw116510 0.0 1026104
10:00+12sw12540 0.0 1026635
13:00+14wsw22528 0.0 1024821
16:00+13wsw225055 0.0 1022739
19:00+11w125632 0.0 1022512
22:00+11w11580 0.0 1022386
5 march, fri
fri501:00+10w116010 0.0 1021138
04:00+9sw116293 0.0 1019126
07:00+9s116696 0.0 101977
10:00+12s115489 0.0 1019665
13:00+13wsw225487 0.0 1018949
16:00+12w2259100 0.0 1017665
19:00+12wnw2260100 0.0 1018550
22:00+12wnw1264100 0.0 1019516
6 march, sat
sat601:00+11nw1279100 0.3 1020239
04:00+11nw0183100 1.1 1020223
07:00+11nw018299 2.1 1021140
10:00+13wsw126792 1.3 1022462
13:00+14wsw336579 2.1 1022733
16:00+14w335920 0.4 1022796
19:00+13nnw236512 0.6 1024618
22:00+12ene126517 0.1 1026279
7 march, sun
sun701:00+11ne12669 0.1 1025135
04:00+10ne12710 0.0 102494
07:00+9ne22740 0.0 1025143
10:00+14e01520 0.0 1025564
13:00+15sw22490 0.0 10231121
16:00+15ssw22571 0.0 1021842
19:00+13sw126914 0.0 1021446
22:00+12s117346 0.0 1021342
8 march, mon
mon801:00+11se228154 0.0 1019180
04:00+11sse228298 0.1 1017200
07:00+11e237799 1.3 1016276
10:00+10se2380100 2.5 1016315
13:00+10ne2286100 8.4 1015251
16:00+11e2380100 4.0 1013330
19:00+11ene237899 4.3 1014226
22:00+10e228288 0.1 1014126